Temp
85 73 68 74 75 74 72 73 70 70 78 74 68 65 72 76 73 79 79 81 82 85 88 90 91 90 87 86 84 82 80 80 78 74 73 73 76 73 74 75 77 77 76 76
77 70 80 88 84 76 74 71 70 75 77 72 69 67 68 75 69 72 81 80 82 85 89 89 85 89 87 84 84 80 82 80 80 77 75 74 73 74 74 75 75 75 75 74
73 79 91 88 80 78 72 64 71 69 77 78 69 59 62 68 73 75 79 85 86 86 88 87 86 88 86 84 82 82 82 81 81 80 75 75 74 74 73 73 73 76 75 75
78 87 88 80 81 80 65 83 80 77 72 60 70 54 61 69 70 78 78 77 85 86 89 89 88 86 87 85 86 84 83 81 80 80 76 74 71 70 72 73 73 73 76 77
77 80 78 80 80 85 73 83 76 79 72 68 65 59 60 68 66 74 81 81 78 89 90 88 90 89 90 89 87 85 83 81 82 81 77 75 74 73 74 74 73 73 75 78
82 90 84 84 87 84 87 79 80 75 68 56 59 60 62 61 66 73 77 80 82 86 91 91 92 92 89 90 89 85 82 81 81 80 78 76 75 74 73 73 74 73 74 76
78 81 88 90 75 81 75 65 55 53 57 52 59 60 66 76 74 78 74 75 76 82 83 87 85 84 83 87 88 85 82 80 80 80 79 77 76 75 75 74 74 74 73 74
66 65 80 87 79 73 73 69 56 47 51 51 61 57 66 73 75 76 79 79 80 76 74 76 79 74 74 90 87 85 81 78 80 79 78 78 77 75 76 75 75 74 73 75
64 68 86 88 87 83 74 65 72 59 54 53 60 63 74 73 71 73 80 83 78 75 72 69 78 72 72 85 83 82 79 77 77 78 78 77 77 77 75 76 76 75 75 76
74 62 79 87 87 86 77 74 60 54 47 46 52 58 58 61 61 68 79 79 76 74 76 74 74 76 85 87 83 80 77 75 74 76 76 73 72 73 72 74 73 72 71 71
77 68 74 78 75 74 74 67 65 59 52 51 48 55 62 63 65 69 67 68 80 80 80 78 80 79 79 80 79 77 76 74 73 72 73 73 71 72 72 71 72 72 72 71
79 69 62 70 84 89 81 75 72 58 53 55 59 57 73 68 68 69 69 70 80 80 79 80 78 78 77 76 75 74 74 74 73 73 73 72 72 72 71 71 71 71 70 70
73 64 56 65 74 82 74 76 74 71 68 62 57 57 65 65 66 74 74 71 76 79 78 77 77 75 74 74 73 73 73 73 73 73 72 71 71 70 70 70 71 71 70 70
78 67 64 60 67 70 69 76 76 70 60 59 60 60 61 63 63 72 70 69 76 77 76 74 73 72 71 71 71 71 73 73 73 72 71 69 69 70 72 73 70 70 70 69
74 63 64 72 78 78 76 77 78 71 69 61 69 65 65 68 68 70 75 79 79 77 76 74 72 71 71 71 72 73 73 73 72 71 70 70 70 70 70 70 73 71 72 70
75 64 64 66 76 75 74 81 81 77 78 73 73 68 75 72 70 71 78 79 77 76 77 76 75 73 72 72 72 74 75 74 72 71 68 70 69 69 68 67 67 67 68 71
71 65 61 58 72 72 64 77 78 78 75 74 67 69 71 70 73 74 74 79 77 77 77 76 76 75 74 73 73 72 71 74 72 71 71 69 70 70 70 69 65 64 64 64
69 65 62 59 62 53 71 82 85 81 81 78 77 74 76 76 74 74 75 77 77 77 77 76 76 75 75 76 73 71 70 71 71 70 70 70 70 69 67 64 62 62 62 61
82 68 59 57 55 65 75 80 78 74 72 80 77 73 68 70 76 74 82 82 78 77 77 76 77 75 73 73 73 71 69 67 70 69 69 68 65 63 62 61 60 60 59 58
79 76 67 58 55 54 69 79 85 82 63 76 73 71 70 76 71 71 81 83 82 81 80 78 77 76 74 72 73 70 68 66 64 65 63 63 63 62 60 60 58 58 58 58
61 62 61 61 58 65 72 79 83 65 63 73 73 67 78 76 76 78 83 82 83 79 78 76 75 71 72 74 75 70 70 65 64 64 63 62 61 60 59 58 58 57 56 57
55 53 56 59 57 55 76 78 68 68 69 77 77 74 77 80 80 79 80 76 76 74 75 74 70 67 69 73 68 63 62 64 64 63 61 60 60 62 61 57 57 57 56 55
54 54 52 56 57 66 75 70 71 73 70 71 71 83 83 80 78 78 76 74 75 75 73 72 68 66 65 65 66 61 61 63 62 61 60 59 60 60 59 57 56 56 55 55
60 56 53 57 62 61 68 76 75 74 73 76 78 85 83 79 78 76 74 73 72 72 71 70 67 64 62 63 63 62 62 62 61 59 58 58 58 58 58 59 58 56 56 55
58 58 54 55 62 63 71 73 74 75 74 76 80 73 82 80 76 75 72 70 70 70 69 68 65 62 61 61 60 61 60 60 58 57 58 57 58 57 57 57 57 58 58 58
58 55 53 52 58 58 60 64 80 74 74 76 74 70 81 79 75 74 71 70 68 67 66 65 63 61 60 60 59 59 60 59 57 55 56 56 56 57 57 56 57 58 57 55
MSLP
1000.11 1000.74 1000.84 1001.14 1002.00 1003.19 1004.71 1005.93 1006.59 1005.92 1006.10 1007.86 1009.04 1008.36 1007.63 1007.30 1007.84 1007.16 1006.37 1006.19 1006.21 1006.39 1006.34 1006.49 1006.68 1007.19 1007.96 1008.60 1009.29 1009.84 1010.51 1010.90 1011.59 1012.43 1013.13 1013.54 1013.60 1013.61 1013.70 1013.55 1013.54 1013.69 1013.77 1013.99
1000.50 1000.48 1000.59 1000.45 1001.20 1002.92 1004.21 1005.03 1005.60 1005.53 1005.38 1006.87 1009.19 1009.22 1008.66 1007.45 1008.81 1008.10 1005.89 1005.67 1005.46 1005.59 1005.89 1006.27 1006.66 1007.08 1007.72 1008.38 1008.93 1009.50 1009.93 1010.46 1011.07 1011.77 1012.46 1012.99 1013.03 1013.22 1013.16 1013.17 1013.20 1013.18 1013.41 1013.74
1000.47 999.82 999.74 1000.20 1001.31 1002.19 1003.43 1004.21 1004.11 1004.40 1004.38 1005.84 1009.11 1010.95 1010.32 1008.91 1007.78 1007.79 1005.04 1004.70 1004.63 1004.52 1004.89 1005.56 1006.16 1006.52 1007.22 1007.95 1008.59 1009.18 1009.59 1010.18 1010.69 1011.35 1012.08 1012.53 1012.85 1013.05 1013.10 1013.18 1013.18 1013.07 1013.06 1013.12
1000.08 999.40 999.51 1000.43 1000.57 1000.36 1002.52 1003.01 1002.59 1003.22 1003.95 1005.37 1007.35 1009.11 1009.59 1008.84 1007.02 1004.52 1004.01 1004.45 1004.16 1003.84 1003.90 1004.55 1005.25 1005.91 1006.65 1007.31 1008.01 1008.67 1009.02 1009.61 1010.24 1010.76 1011.72 1012.17 1012.42 1012.80 1012.76 1012.71 1012.77 1012.76 1012.64 1012.70
999.73 999.34 999.39 999.40 999.75 1000.13 1001.03 1001.19 1001.92 1002.57 1003.02 1004.41 1005.37 1006.97 1007.77 1007.03 1005.81 1003.74 1002.86 1003.72 1004.23 1003.28 1003.31 1003.67 1004.32 1004.69 1005.30 1006.46 1007.36 1007.91 1008.42 1009.07 1009.64 1010.30 1010.92 1011.70 1012.02 1012.14 1012.11 1012.40 1012.59 1012.49 1012.21 1011.94
999.47 998.83 998.86 998.74 998.98 999.41 999.89 1000.09 1000.82 1001.93 1003.05 1005.50 1006.72 1006.73 1007.08 1006.48 1005.04 1003.97 1003.81 1004.35 1004.26 1003.75 1003.42 1003.67 1003.65 1004.00 1004.65 1005.75 1006.79 1007.56 1008.06 1008.55 1009.08 1009.72 1010.28 1010.95 1011.53 1011.88 1012.03 1012.04 1012.15 1012.10 1012.11 1012.08
999.60 998.81 998.29 998.21 998.73 999.11 1000.19 1001.06 1002.35 1003.87 1005.28 1006.26 1005.98 1006.56 1005.72 1004.40 1004.11 1003.86 1005.16 1005.56 1004.26 1004.14 1004.07 1004.22 1004.88 1005.24 1004.91 1005.52 1006.13 1006.91 1007.70 1008.26 1008.74 1009.25 1009.80 1010.53 1011.14 1011.42 1011.70 1011.93 1011.86 1012.00 1012.11 1011.99
1000.14 999.20 998.07 997.54 997.93 998.94 999.80 1001.13 1003.11 1004.97 1006.48 1006.79 1006.18 1005.82 1005.40 1006.07 1005.76 1006.26 1006.12 1005.99 1005.78 1006.52 1004.74 1006.46 1006.67 1007.78 1008.58 1005.29 1005.77 1006.84 1007.78 1008.55 1009.04 1009.33 1009.69 1010.17 1010.58 1010.98 1011.24 1011.33 1011.58 1011.67 1011.85 1011.80
999.88 998.96 997.47 997.10 997.19 997.95 999.42 1001.11 1002.37 1005.26 1006.57 1007.16 1006.30 1005.87 1005.80 1006.12 1006.86 1006.54 1004.71 1004.49 1004.78 1005.66 1006.03 1007.06 1007.07 1009.51 1007.70 1006.01 1006.53 1007.49 1008.18 1008.61 1008.95 1009.29 1009.55 1010.05 1010.41 1010.66 1010.67 1010.59 1010.67 1011.19 1011.44 1011.54
999.04 999.38 997.79 996.84 996.73 997.28 998.31 1000.31 1003.16 1005.17 1007.10 1007.88 1006.99 1007.26 1008.09 1008.43 1008.36 1007.01 1005.23 1005.67 1005.22 1005.72 1006.29 1007.49 1007.92 1008.98 1006.65 1006.38 1007.25 1008.35 1008.82 1009.06 1009.29 1009.35 1009.70 1010.44 1010.74 1011.02 1010.96 1010.83 1011.29 1011.52 1011.67 1011.92
998.37 999.13 997.99 997.33 996.90 997.16 997.97 999.89 1001.38 1004.22 1005.81 1006.70 1007.83 1008.05 1008.12 1007.94 1007.82 1008.21 1008.36 1008.08 1005.53 1005.60 1005.99 1006.66 1007.17 1007.16 1007.08 1007.51 1008.20 1008.87 1009.18 1009.54 1009.90 1010.21 1010.62 1010.99 1011.33 1011.42 1011.50 1011.71 1011.84 1012.04 1012.11 1012.11
997.71 998.06 998.37 997.59 996.49 996.04 996.75 998.10 999.45 1001.87 1004.28 1005.10 1005.87 1008.10 1008.24 1008.01 1007.93 1007.65 1007.01 1007.50 1006.04 1005.72 1006.01 1006.41 1006.98 1007.23 1007.73 1008.33 1008.77 1009.20 1009.56 1009.90 1010.35 1010.67 1011.02 1011.37 1011.41 1011.55 1011.77 1011.91 1012.02 1012.12 1012.26 1012.32
997.12 998.08 998.56 998.14 997.11 995.66 996.55 997.16 997.89 999.15 1000.34 1002.65 1004.36 1007.39 1008.16 1008.06 1005.91 1004.32 1004.22 1005.87 1006.37 1006.13 1006.55 1006.91 1007.36 1008.08 1008.56 1009.12 1009.51 1009.77 1010.11 1010.42 1010.79 1011.05 1011.35 1011.65 1011.90 1012.06 1012.30 1012.27 1012.23 1012.28 1012.33 1012.43
996.87 997.88 998.54 998.53 997.87 997.21 997.21 996.98 997.02 998.06 999.66 1000.93 1002.55 1005.44 1007.12 1006.81 1005.85 1005.30 1005.58 1005.98 1006.11 1006.13 1006.87 1007.53 1008.30 1008.82 1009.19 1009.60 1010.16 1010.32 1010.57 1010.76 1011.07 1011.40 1011.79 1012.07 1012.19 1012.28 1012.34 1012.44 1012.59 1012.74 1012.72 1012.79
997.04 998.16 998.35 998.09 997.70 996.87 996.50 996.67 996.39 997.17 997.84 999.24 1000.70 1002.22 1003.99 1004.50 1004.63 1004.62 1004.88 1005.18 1005.41 1006.41 1007.22 1008.06 1008.52 1009.08 1009.35 1009.91 1010.38 1010.47 1010.67 1010.95 1011.31 1011.67 1012.03 1012.36 1012.48 1012.68 1012.73 1012.84 1012.94 1013.03 1013.02 1013.01
997.08 998.15 998.49 998.50 997.95 997.12 996.49 995.90 996.13 995.90 996.65 997.54 999.12 1000.98 1001.65 1003.20 1003.59 1003.86 1003.91 1004.28 1005.11 1006.23 1007.09 1007.74 1008.28 1008.81 1009.30 1009.97 1010.28 1010.33 1010.63 1011.09 1011.46 1011.92 1012.37 1012.64 1012.90 1013.08 1013.22 1013.39 1013.49 1013.48 1013.50 1013.56
997.35 998.31 999.21 999.22 998.26 997.65 996.95 995.93 995.48 995.35 995.86 996.79 998.56 1000.38 1001.96 1003.23 1003.42 1003.40 1003.91 1004.28 1004.80 1005.74 1006.54 1007.26 1007.89 1008.42 1009.33 1009.78 1010.10 1010.64 1010.92 1011.33 1011.81 1012.12 1012.73 1013.09 1013.15 1013.26 1013.40 1013.66 1013.87 1014.03 1014.05 1013.99
997.22 998.59 999.22 999.73 998.99 998.01 996.61 995.00 994.93 995.11 995.87 996.87 997.94 999.76 1001.21 1002.31 1003.04 1003.14 1003.67 1003.96 1004.61 1005.23 1006.04 1006.78 1007.35 1008.23 1009.05 1009.51 1010.17 1010.89 1011.35 1011.68 1012.20 1012.83 1013.24 1013.48 1013.53 1013.74 1013.92 1014.11 1014.40 1014.43 1014.37 1014.37
997.09 998.22 999.37 999.78 999.36 998.30 996.73 995.43 995.06 995.31 996.49 997.23 997.96 1000.76 1002.32 1004.56 1003.53 1002.87 1002.81 1003.18 1004.01 1004.75 1005.76 1006.73 1007.58 1008.35 1009.20 1009.85 1010.41 1011.24 1011.77 1012.18 1012.61 1013.15 1013.50 1013.81 1013.95 1014.13 1014.38 1014.53 1014.71 1014.73 1014.77 1014.72
997.36 998.01 999.39 999.81 999.82 998.93 997.36 996.38 995.29 995.17 997.79 999.24 1000.01 1001.31 1001.90 1002.51 1002.70 1002.71 1002.37 1003.06 1004.09 1004.71 1005.86 1007.08 1007.98 1008.89 1009.61 1010.18 1010.73 1011.32 1012.06 1012.60 1013.05 1013.46 1013.87 1014.05 1014.24 1014.56 1014.77 1014.84 1014.90 1014.82 1014.80 1014.80
1000.06 999.84 1000.46 1000.55 999.98 998.42 997.20 996.59 996.03 996.89 999.48 999.54 999.95 1001.40 1002.85 1001.06 1000.93 1001.82 1002.08 1003.43 1004.12 1004.96 1006.25 1007.47 1008.34 1009.23 1009.85 1010.21 1010.85 1011.79 1012.35 1013.10 1013.41 1013.64 1014.09 1014.34 1014.47 1014.76 1014.83 1014.90 1014.88 1014.90 1014.97 1014.89
1003.69 1003.54 1002.88 1001.82 1001.14 1000.34 998.75 997.46 997.65 998.44 998.93 999.01 999.23 1001.68 999.06 1000.85 1001.35 1002.34 1002.94 1004.25 1005.04 1006.06 1007.07 1008.00 1009.06 1010.04 1010.39 1010.92 1011.61 1012.65 1013.23 1013.44 1013.60 1013.99 1014.42 1014.59 1014.62 1014.70 1014.78 1014.83 1014.89 1014.87 1014.98 1014.90
1005.84 1005.74 1005.82 1004.84 1003.80 1002.59 1001.22 999.45 998.95 998.82 998.82 999.33 999.52 999.73 999.98 1000.82 1002.40 1002.87 1003.80 1005.15 1005.77 1006.64 1007.88 1008.74 1009.59 1010.59 1011.22 1011.69 1012.20 1013.09 1013.57 1013.75 1013.95 1014.24 1014.55 1014.65 1014.54 1014.58 1014.64 1014.78 1014.76 1014.76 1014.71 1014.74
1006.02 1005.95 1006.78 1005.96 1004.30 1002.73 1002.68 1002.76 1000.28 999.44 999.36 999.80 999.45 999.51 1000.04 1001.57 1002.27 1003.48 1004.66 1005.69 1006.62 1007.68 1008.45 1009.36 1010.34 1011.31 1012.19 1012.61 1013.04 1013.44 1013.84 1013.88 1014.09 1014.40 1014.58 1014.57 1014.53 1014.53 1014.46 1014.36 1014.32 1014.37 1014.34 1014.23
1005.60 1005.96 1006.31 1006.86 1005.63 1003.96 1002.31 1002.89 1001.86 999.73 999.28 999.38 999.67 1000.23 1001.04 1001.79 1002.99 1003.99 1005.23 1006.37 1007.46 1008.42 1009.16 1010.00 1010.87 1011.90 1012.76 1013.10 1013.55 1013.85 1014.04 1014.14 1014.43 1014.62 1014.65 1014.63 1014.55 1014.48 1014.38 1014.23 1014.06 1013.97 1013.72 1013.66
1005.28 1005.55 1006.23 1006.47 1006.39 1005.71 1004.66 1003.50 1002.00 1000.56 1000.05 999.80 1000.00 1001.94 1001.38 1001.94 1003.47 1004.59 1005.78 1007.05 1008.18 1008.95 1009.81 1010.67 1011.51 1012.35 1013.06 1013.40 1013.84 1014.19 1014.17 1014.34 1014.63 1014.76 1014.73 1014.62 1014.56 1014.42 1014.36 1014.24 1013.90 1013.40 1013.23 1013.15
Wind_Speed
10 4 6 1 5 7 8 12 13 9 8 8 5 13 15 9 12 8 8 9 9 12 13 14 13 13 14 12 12 10 12 11 8 4 4 3 6 3 3 4 5 5 4 6
7 8 9 8 7 13 8 8 8 13 11 11 16 15 12 10 8 16 10 13 12 10 14 15 10 13 16 15 13 9 11 13 10 6 5 4 4 4 3 3 5 5 5 6
9 13 13 3 10 1 8 6 8 12 12 19 12 3 6 6 13 21 1 6 15 13 18 17 16 13 16 15 14 12 11 13 12 10 5 2 1 0 2 2 3 6 7 8
9 12 5 4 12 8 8 6 22 19 12 8 20 5 10 11 23 8 7 6 13 17 14 18 17 12 20 16 15 16 13 12 9 9 7 7 5 5 4 4 3 5 7 9
14 10 2 10 15 7 13 19 23 23 4 8 3 5 4 4 6 6 11 6 8 20 16 17 17 16 17 20 17 16 14 12 11 11 8 7 6 5 3 4 6 6 6 7
15 7 10 21 15 9 5 4 7 5 1 7 0 4 4 6 10 10 6 7 14 10 15 18 18 17 13 20 17 15 16 13 11 12 10 9 8 6 4 4 4 4 4 4
15 15 9 10 4 4 1 5 4 7 6 2 6 3 9 8 9 16 6 12 34 20 5 8 4 11 9 20 18 15 15 13 11 12 10 7 7 7 7 5 5 4 3 3
10 13 12 7 7 9 5 5 6 5 3 6 3 3 1 19 16 16 19 15 26 13 17 25 8 16 25 17 16 14 13 9 8 6 7 7 7 4 5 6 4 4 4 4
6 12 11 11 7 7 6 2 5 4 3 0 3 2 10 16 19 19 5 10 19 16 26 35 12 12 28 11 12 12 9 7 7 8 6 5 4 5 6 4 3 1 2 3
13 8 11 12 8 10 9 11 4 3 5 4 7 5 4 11 21 24 12 6 11 13 16 16 13 13 5 14 12 12 12 9 6 6 5 5 6 5 5 3 4 6 6 7
11 7 19 7 5 11 6 5 6 9 6 7 2 3 6 13 13 3 14 18 8 8 11 9 8 12 16 15 14 12 11 11 9 8 7 6 3 3 5 5 4 5 4 2
12 5 6 12 13 14 10 9 10 7 7 6 7 4 10 11 14 14 7 8 4 7 8 10 13 13 13 13 11 10 8 9 7 6 6 6 5 6 6 6 5 4 3 4
4 3 4 12 11 4 6 9 7 5 4 6 5 5 8 10 5 5 10 3 6 8 8 8 11 10 11 10 8 7 7 7 6 7 7 7 7 6 6 5 5 4 1 0
6 3 7 8 5 4 5 13 7 6 2 4 6 12 13 10 13 16 4 6 6 9 8 10 10 9 9 8 7 6 6 7 6 6 6 6 5 4 4 6 7 7 7 7
3 5 6 8 7 6 6 13 9 9 9 4 11 11 26 22 22 24 17 13 10 9 10 10 9 8 8 7 6 7 6 6 7 7 6 6 6 6 7 7 6 5 5 4
3 6 4 8 3 4 5 12 14 1 4 4 10 5 13 11 6 8 15 15 13 9 11 12 11 10 8 7 7 7 7 7 7 7 7 7 6 6 6 7 6 7 6 7
7 3 2 7 9 6 5 15 13 8 2 2 7 7 10 6 9 13 10 15 15 11 11 12 12 11 9 8 7 7 8 10 8 10 7 6 6 6 6 5 6 6 6 6
8 6 3 5 6 7 9 8 6 7 9 11 8 18 19 13 6 8 7 9 11 11 11 9 8 8 8 9 9 10 7 9 9 8 6 4 5 6 5 6 5 5 4 4
9 7 2 5 4 6 10 11 3 4 5 5 16 20 24 20 5 4 11 9 9 11 9 7 8 7 10 10 11 9 7 7 7 6 5 5 5 5 5 5 4 3 3 4
9 7 7 3 5 6 9 6 10 4 4 10 22 20 29 28 12 7 12 15 15 14 11 10 13 11 10 7 10 9 8 7 7 7 6 5 4 5 4 4 3 3 3 2
6 6 5 4 5 5 3 5 7 2 5 5 23 19 19 7 10 8 15 15 14 10 16 11 11 9 7 8 7 10 9 7 6 7 6 6 4 2 4 3 2 2 3 5
3 5 4 5 3 7 10 7 4 7 4 12 13 20 2 13 15 14 17 17 18 16 15 15 12 8 8 10 12 9 8 6 6 6 6 5 3 2 2 1 3 4 4 5
3 2 3 2 4 10 19 5 5 3 5 3 2 15 15 18 15 15 16 16 14 14 14 13 12 11 8 8 10 9 5 6 5 5 4 3 3 3 4 4 5 4 4 2
3 3 2 5 5 15 17 21 1 5 5 4 6 15 17 16 14 14 14 13 9 11 13 13 13 10 8 8 7 7 6 4 4 4 2 3 3 4 4 4 4 3 3 2
1 2 5 4 4 15 17 13 8 8 12 10 7 9 13 15 13 14 12 9 9 10 10 11 11 9 8 8 7 6 6 6 5 3 3 4 3 2 3 4 5 4 5 5
6 6 3 4 1 6 20 26 17 13 14 17 19 10 11 15 13 13 11 10 9 10 10 10 10 9 8 8 7 6 6 5 3 3 3 3 3 4 4 3 4 7 7 8
Wind_Direction
242 220 250 290 115 150 158 124 163 319 243 149 164 174 266 289 325 276 176 168 183 186 180 179 178 160 155 151 156 159 162 182 157 131 147 165 206 216 220 196 202 217 235 227
276 234 190 153 170 160 168 143 221 224 252 152 161 204 255 347 328 284 197 178 193 187 173 181 182 162 162 165 173 175 167 174 175 157 162 167 178 214 203 188 219 229 227 244
232 243 240 167 139 188 131 145 232 229 252 183 151 271 218 190 236 257 262 217 184 198 172 179 180 176 174 176 178 181 175 171 170 164 157 109 127 343 157 212 227 235 228 230
250 261 205 208 241 177 129 170 257 245 232 155 181 127 224 201 217 215 240 233 211 194 180 174 177 181 179 182 180 178 172 172 172 164 152 161 183 195 209 197 210 236 226 224
248 254 23 302 244 232 211 191 225 239 262 133 61 89 208 282 292 240 262 264 283 188 186 174 177 186 169 177 178 178 176 172 170 175 172 170 191 206 205 182 215 229 239 219
257 246 161 236 256 66 346 27 335 279 276 82 134 94 205 200 216 242 244 321 290 248 185 175 181 181 155 173 175 175 176 178 169 174 180 182 192 196 207 212 220 223 219 232
278 273 240 218 80 118 9 49 342 6 27 277 17 79 238 256 196 201 217 88 274 261 175 156 141 168 157 174 180 171 171 173 172 170 178 186 193 205 208 205 208 217 238 226
241 278 253 232 178 187 188 185 144 172 216 247 321 191 266 77 46 315 286 205 236 130 73 21 347 358 333 175 163 162 158 146 160 163 167 181 203 202 212 217 211 216 216 227
233 242 252 219 225 162 159 119 109 122 161 164 226 159 40 54 32 306 247 106 92 117 121 179 218 124 254 116 118 126 128 148 163 176 175 183 203 223 230 198 200 208 263 266
257 299 272 268 187 231 181 160 123 338 104 292 292 4 110 100 128 260 319 24 110 120 142 168 186 212 134 102 101 90 90 94 78 55 101 85 64 49 5 90 32 26 7 30
223 200 276 324 191 201 241 186 69 106 142 162 256 82 192 178 197 269 322 316 74 107 135 154 114 80 80 82 89 88 84 81 70 62 63 78 78 62 58 76 68 47 50 48
213 195 252 245 277 204 199 214 177 133 205 222 158 154 144 161 169 180 201 284 64 87 92 87 93 86 81 80 80 87 88 90 88 95 101 93 67 47 49 49 45 61 40 45
249 240 291 323 312 145 199 236 219 208 167 199 132 179 137 228 76 158 186 256 264 113 106 91 84 85 89 88 84 85 87 108 117 92 89 76 68 65 63 46 50 33 358 276
84 281 174 211 227 194 296 324 233 209 146 221 153 145 196 204 162 195 244 246 179 104 100 98 97 98 99 99 109 108 104 109 117 114 113 104 101 89 75 78 60 50 46 52
133 251 278 279 281 231 190 276 239 203 218 180 201 175 183 187 180 196 202 158 126 125 121 125 123 123 121 131 150 128 125 136 105 91 92 91 67 57 61 60 51 58 51 53
235 248 293 307 265 219 229 270 288 249 228 242 143 114 170 167 150 127 146 146 147 165 152 146 136 137 140 165 164 147 152 118 111 110 91 98 86 77 73 62 54 44 35 32
185 166 241 266 282 251 243 239 243 226 57 131 129 155 139 174 174 149 164 159 158 163 155 146 152 152 165 176 133 117 106 100 99 87 84 84 86 75 67 62 51 41 29 29
171 201 171 239 291 284 254 280 250 240 132 115 137 140 164 172 180 145 218 147 151 138 136 143 138 139 158 123 109 98 98 95 90 94 89 89 89 83 67 67 53 36 16 11
188 177 208 156 249 269 302 285 237 228 162 128 124 117 104 279 155 202 172 147 141 133 128 124 124 116 106 120 119 116 114 118 111 102 89 71 77 85 84 72 52 25 11 357
278 173 158 159 201 237 247 324 329 333 48 29 122 146 154 193 165 204 155 137 131 131 127 123 106 106 104 115 116 125 108 113 114 112 107 91 77 89 85 65 50 355 353 324
350 337 193 231 219 229 220 273 292 46 192 119 89 62 279 160 175 154 129 128 131 118 111 112 104 109 121 131 111 103 105 95 109 104 102 89 57 49 105 60 358 305 298 308
6 331 355 352 357 319 340 330 132 190 184 99 98 125 211 98 92 102 109 106 108 110 104 104 98 81 62 86 99 99 96 106 99 110 117 117 98 77 124 173 280 281 277 282
236 57 313 59 244 334 335 57 55 179 134 121 79 142 118 110 115 112 110 114 115 110 110 104 98 84 63 47 106 104 114 107 112 108 116 153 187 224 218 237 264 282 287 203
131 78 197 312 313 325 326 308 263 155 89 65 46 112 105 121 115 109 110 114 108 106 114 113 106 98 89 87 89 100 99 101 104 113 180 252 233 250 245 243 253 255 248 241
180 191 166 220 353 359 309 275 240 83 72 56 62 24 134 123 117 119 115 106 106 113 114 116 116 115 113 104 106 106 93 67 51 37 317 304 303 298 271 265 244 252 257 206
183 194 130 213 144 53 295 296 245 152 144 151 170 241 139 117 122 120 111 110 109 102 100 100 110 114 121 110 108 107 108 104 76 10 8 4 358 322 324 334 334 324 255 293